Weather History for KPKD - June, 2013

Change the Weather History Date:

Tuesday, June 4, 2013

  Actual Average Record
Temperature  
Mean Temperature 54 °F -  
Max Temperature 60 °F 74 °F 88 °F (1988)
Min Temperature 48 °F 48 °F 28 °F (1964)
Degree Days  
Heating Degree Days 12    
Growing Degree Days 4 (Base 50)    
Moisture  
Dew Point 48 °F    
Average Humidity 80    
Maximum Humidity 100    
Minimum Humidity 47    
Precipitation  
Precipitation 0.41 in - - ()
Sea Level Pressure  
Sea Level Pressure 30.03 in    
Wind  
Wind Speed 10 mph (ESE)    
Max Wind Speed 20 mph    
Max Gust Speed 25 mph    
Visibility 8 miles    
Events Rain    
Averages and records for this station are not official NWS values.
T = Trace of Precipitation, MM = Missing Value Source: NWS Daily Summary

Daily Weather History Graph

Daily Weather History Graph

Search for Another Location

Airport or City:

Trip Planner

Search our weather history database for the weather conditions in past years. The results will help you decide how hot, cold, wet, or windy it might be!

Date:

Astronomy

Jun. 04, 2013 Rise Set
Actual Time 5:27 AM CDT 9:10 PM CDT
Civil Twilight 4:48 AM CDT 9:48 PM CDT
Nautical Twilight 3:56 AM CDT 10:41 PM CDT
Astronomical Twilight 2:44 AM CDT 11:54 PM CDT
Moon 3:11 AM CDT (6/4) 5:29 PM CDT (6/4)
Length of Visible Light 16h 59m
Length of Day
15h 42m
Waning Crescent, 14% of the Moon is Illuminated
Jun 4
Waning Crescent
Jun 8
New
Jun 16
First Quarter
Jun 23
Full
Jun 29
Last Quarter

Hourly Weather History & Observations

Time (CDT) Temp. Dew Point Humidity Pressure Visibility Wind Dir Wind Speed Gust Speed Precip Events Conditions
12:53 AM 57.0 °F 37.0 °F 47% 30.05 in 10.0 mi Calm Calm - N/A   Overcast
1:53 AM 55.0 °F 39.0 °F 55% 30.06 in 10.0 mi NE 5.8 mph - N/A   Overcast
2:53 AM 55.0 °F 39.0 °F 55% 30.06 in 10.0 mi East 9.2 mph - N/A   Overcast
3:53 AM 55.0 °F 37.0 °F 51% 30.04 in 10.0 mi East 12.7 mph 19.6 mph N/A   Overcast
4:53 AM 54.0 °F 34.0 °F 47% 30.04 in 10.0 mi East 9.2 mph - N/A   Overcast
5:53 AM 48.9 °F 42.1 °F 77% 30.08 in 6.0 mi SSE 5.8 mph - 0.02 in Rain Light Rain
6:53 AM 48.0 °F 41.0 °F 77% 30.03 in 10.0 mi East 17.3 mph - 0.02 in Rain Light Rain
7:53 AM 50.0 °F 41.0 °F 71% 30.02 in 10.0 mi East 13.8 mph - 0.01 in Rain Light Rain
8:53 AM 52.0 °F 39.9 °F 63% 30.06 in 10.0 mi ESE 15.0 mph 20.7 mph 0.00 in   Overcast
9:53 AM 53.1 °F 45.0 °F 74% 30.06 in 10.0 mi ESE 13.8 mph 23.0 mph N/A   Mostly Cloudy
10:53 AM 55.9 °F 46.0 °F 69% 30.06 in 10.0 mi ESE 13.8 mph 24.2 mph N/A   Scattered Clouds
11:35 AM 57.2 °F 46.4 °F 67% 30.04 in 10.0 mi East 15.0 mph - N/A   Overcast
11:53 AM 59.0 °F 48.9 °F 69% 30.04 in 10.0 mi ESE 11.5 mph 19.6 mph N/A   Overcast
12:00 PM 59.0 °F 48.2 °F 67% 30.03 in 10.0 mi ESE 13.8 mph - N/A   Overcast
12:53 PM 59.0 °F 48.0 °F 67% 30.04 in 10.0 mi ESE 15.0 mph 23.0 mph N/A   Overcast
1:53 PM 59.0 °F 48.0 °F 67% 30.04 in 10.0 mi ESE 11.5 mph 20.7 mph N/A   Overcast
2:53 PM 59.0 °F 46.9 °F 64% 30.03 in 10.0 mi SE 17.3 mph 23.0 mph N/A   Overcast
3:12 PM 59.0 °F 46.4 °F 63% 30.02 in 10.0 mi SE 19.6 mph 25.3 mph N/A   Overcast
3:53 PM 57.0 °F 48.9 °F 74% 30.04 in 10.0 mi ESE 15.0 mph - N/A   Overcast
4:53 PM 55.0 °F 48.9 °F 80% 30.04 in 6.0 mi ESE 9.2 mph - N/A   Haze
5:11 PM 53.6 °F 51.8 °F 94% 30.02 in 2.0 mi SE 10.4 mph - 0.00 in Rain Light Rain
5:18 PM 53.6 °F 51.8 °F 94% 30.02 in 1.5 mi ESE 12.7 mph - 0.01 in Rain Rain
5:36 PM 55.4 °F 53.6 °F 94% 30.01 in 1.8 mi ESE 13.8 mph 21.9 mph 0.09 in Rain Light Rain
5:41 PM 53.6 °F 53.6 °F 100% 30.02 in 3.0 mi ESE 9.2 mph 18.4 mph 0.09 in Rain Light Rain
5:53 PM 54.0 °F 53.1 °F 97% 30.04 in 6.0 mi East 11.5 mph - 0.09 in Rain Light Rain
6:25 PM 55.4 °F 53.6 °F 94% 30.02 in 10.0 mi ESE 11.5 mph 21.9 mph 0.00 in   Overcast
6:40 PM 55.4 °F 53.6 °F 94% 30.02 in 2.5 mi ESE 12.7 mph 18.4 mph 0.00 in   Overcast
6:49 PM 55.4 °F 53.6 °F 94% 30.01 in 1.5 mi ESE 11.5 mph - 0.00 in Rain Light Rain
6:50 PM 53.6 °F 53.6 °F 100% 30.01 in 1.5 mi ESE 12.7 mph - 0.00 in Rain Light Rain
6:53 PM 54.0 °F 53.1 °F 97% 30.04 in 1.5 mi ESE 10.4 mph - 0.00 in Rain Light Rain
7:14 PM 53.6 °F 53.6 °F 100% 30.01 in 1.8 mi East 12.7 mph 20.7 mph 0.02 in Rain Light Rain
7:20 PM 53.6 °F 51.8 °F 94% 30.01 in 2.0 mi ESE 17.3 mph 21.9 mph 0.02 in Rain Light Rain
7:46 PM 53.6 °F 51.8 °F 94% 30.01 in 5.0 mi ESE 13.8 mph 20.7 mph 0.02 in   Overcast
7:53 PM 54.0 °F 52.0 °F 93% 30.04 in 8.0 mi ESE 12.7 mph 23.0 mph 0.02 in   Overcast
8:04 PM 53.6 °F 51.8 °F 94% 30.02 in 10.0 mi ESE 12.7 mph 20.7 mph N/A   Overcast
8:53 PM 53.1 °F 50.0 °F 89% 30.04 in 9.0 mi East 12.7 mph - 0.00 in   Mostly Cloudy
9:09 PM 53.6 °F 48.2 °F 82% 30.02 in 10.0 mi ESE 13.8 mph 21.9 mph N/A   Overcast
9:12 PM 53.6 °F 48.2 °F 82% 30.03 in 10.0 mi ESE 15.0 mph 21.9 mph N/A   Overcast
9:21 PM 51.8 °F 48.2 °F 88% 30.03 in 10.0 mi ESE 13.8 mph 23.0 mph 0.00 in Rain Light Rain
9:53 PM 52.0 °F 48.9 °F 89% 30.06 in 3.0 mi ESE 13.8 mph 21.9 mph 0.11 in Rain Rain
10:53 PM 50.0 °F 48.0 °F 93% 30.06 in 10.0 mi East 12.7 mph - 0.14 in Rain Light Rain
11:24 PM 50.0 °F 48.2 °F 94% 30.04 in 10.0 mi East 10.4 mph 16.1 mph 0.00 in   Overcast
11:41 PM 51.8 °F 48.2 °F 88% 30.03 in 10.0 mi East 10.4 mph - 0.00 in   Overcast
11:53 PM 51.1 °F 48.9 °F 92% 30.04 in 10.0 mi East 11.5 mph - 0.00 in   Overcast